Flag for Honduras Weather past 2 weeks in La Ceiba, Honduras

Now
81 °F

Scattered clouds.


Feels Like: 85 °F
Forecast: 71 / 84 °F
Wind: 3 mph from Northeast

Location: La Ceiba Airport

Current Time: Mar 6, 2015 at 8:44:23 AM

Latest Report: Mar 6, 2015 at 8:00 AM


Visibility: N/A

Pressure: 30.01 "Hg

Humidity: 74%

Dew point: 72 °F

Location of La CeibaLocation

Historic Weather in La Ceiba — Graph

°F

La Ceiba temperature yesterday

Maximum temperature yesterday: 86 °F (at 1:00 PM)
Minimum temperature yesterday: 68 °F (at 5:00 AM)
Average temperature yesterday: 78 °F

Past Weeks' High & Low Weather Summary

 TemperatureHumidityPressure
High86 °F (Feb 26, 10:00 AM)100% (Feb 19, 9:00 PM)30.21 "Hg (Feb 19, 9:00 PM)
Low63 °F (Feb 21, 6:00 AM)59% (Feb 28, 1:00 PM)29.77 "Hg (Feb 26, 12:00 AM)
Average76 °F82%29.98 "Hg
* Reported Feb 19 7:00 AM — Mar 6 7:00 AM, La Ceiba, Weather by CustomWeather, © 2015

Note: Actual official high and low records may vary slightly from our data, if they occured in-between our weather recording intervals... More about our weather records

Advertising

La Ceiba weather history for previous 24 hours

 ConditionsComfort  
Time TempWeatherWind HumidityBarometerVisibility
7:00 AM
Fri, Mar 6
75 °FScattered clouds.No wind89%30.01 "HgN/A
6:00 AM72 °FPassing clouds.2 mph100%29.98 "HgN/A
4:00 AM73 °FPassing clouds.3 mph94%29.95 "HgN/A
3:00 AM73 °FPassing clouds.2 mph100%29.95 "HgN/A
2:00 AM75 °FPartly cloudy.No wind94%29.95 "HgN/A
1:00 AM75 °FPartly cloudy.2 mph94%29.98 "HgN/A
12:00 AM75 °FPartly cloudy.No wind94%29.98 "HgN/A
11:00 PM
Thu, Mar 5
75 °FPartly cloudy.5 mph94%30.01 "HgN/A
10:00 PM75 °FPartly cloudy.3 mph94%30.01 "HgN/A
9:00 PM77 °FPartly cloudy.2 mph89%29.98 "HgN/A
8:00 PM77 °FLight rain. Partly cloudy.3 mph89%29.98 "Hg5 mi
7:00 PM81 °FPartly cloudy.9 mph74%29.95 "HgN/A
6:00 PM81 °FPartly cloudy.9 mph70%29.92 "HgN/A
5:00 PM82 °FPassing clouds.13 mph70%29.89 "HgN/A
4:00 PM84 °FWarm.13 mph70%29.89 "HgN/A
3:00 PM84 °FPassing clouds.8 mph70%29.86 "HgN/A
2:00 PM86 °FPassing clouds.8 mph66%29.89 "HgN/A
1:00 PM86 °FPassing clouds.5 mph66%29.92 "HgN/A
12:00 PM84 °FPassing clouds.5 mph66%29.95 "HgN/A
11:00 AM84 °FPassing clouds.6 mph66%29.95 "HgN/A
10:00 AM84 °FPassing clouds.5 mph70%29.95 "HgN/A
9:00 AM81 °FScattered clouds.5 mph70%29.95 "HgN/A
8:00 AM77 °FPassing clouds.2 mph79%29.95 "HgN/A
Weather by CustomWeather, © 2015

See weather overviewHow to use our weather pages